FW9837 Weather Reports


Display with metric or nautical units.
time (UTC)temp
F
wind
direction
speed
MPH
gust
MPH
rain 1hr
in
rain 24hr
in
rain mn
in
humidity
%
barometer
mb
20260506134611 48 355 5.0 11.0 0.05 0.83 0.83 95 1005.5
20260506134411 48 334 5.0 11.0 0.05 0.83 0.83 95 1005.5
20260506133553 48 355 4.0 9.0 0.05 0.82 0.82 95 1005.5
20260506133042 48 5 4.0 9.0 0.05 0.82 0.82 95 1005.5
20260506132843 48 321 4.0 9.0 0.04 0.81 0.81 95 1005.5
20260506132042 48 21 4.0 8.0 0.05 0.81 0.81 95 1005.6
20260506131542 48 337 3.0 8.0 0.05 0.81 0.81 95 1005.5
20260506131353 48 13 3.0 8.0 0.05 0.80 0.80 95 1005.5
20260506130543 48 355 4.0 8.0 0.05 0.80 0.80 95 1005.5
20260506130041 48 348 4.0 8.0 0.05 0.80 0.80 95 1005.4
20260506125542 48 350 4.0 8.0 0.05 0.79 0.79 95 1005.4
20260506125045 48 331 4.0 8.0 0.06 0.79 0.79 95 1005.4
20260506124853 48 340 4.0 8.0 0.06 0.78 0.78 95 1005.4
20260506124025 48 355 4.0 8.0 0.06 0.78 0.78 95 1005.4
20260506123515 48 340 3.0 7.0 0.06 0.77 0.77 95 1005.2
20260506123015 47 333 3.0 7.0 0.06 0.77 0.77 95 1005.3
20260506122516 47 336 4.0 7.0 0.06 0.76 0.77 95 1005.2
20260506122015 47 355 4.0 7.0 0.06 0.76 0.76 95 1005.1
20260506121514 47 334 3.0 7.0 0.06 0.76 0.76 95 1005.1
20260506121016 47 350 3.0 7.0 0.06 0.76 0.76 95 1005.1
20260506120516 47 5 3.0 7.0 0.06 0.75 0.75 95 1005.1
20260506120015 47 338 3.0 8.0 0.06 0.75 0.75 95 1005.2
20260506115516 47 5 3.0 8.0 0.05 0.74 0.74 95 1005.2
20260506115010 47 333 3.0 7.0 0.05 0.73 0.73 95 1005.2
20260506114502 47 350 4.0 7.0 0.04 0.72 0.72 95 1005.1
20260506113950 47 0 4.0 7.0 0.03 0.72 0.72 95 1005.2
20260506113449 47 335 4.0 7.0 0.03 0.72 0.72 95 1005.2
20260506112949 47 355 3.0 7.0 0.02 0.71 0.71 95 1005.2
20260506112746 47 342 2.0 7.0 0.02 0.71 0.71 95 1005.2
20260506111944 47 11 3.0 7.0 0.02 0.70 0.70 95 1005.2
20260506111446 46 339 2.0 7.0 0.02 0.70 0.70 95 1005.1
20260506110946 46 340 2.0 7.0 0.02 0.70 0.70 95 1005.0
20260506110446 46 355 4.0 9.0 0.02 0.69 0.69 95 1005.0
20260506105944 46 334 5.0 10.0 0.02 0.69 0.69 95 1004.9
20260506105446 46 336 5.0 10.0 0.02 0.69 0.69 95 1004.9
20260506105123 46 5 5.0 8.0 0.01 0.69 0.69 95 1005.0
20260506105040 46 5 5.0 9.0 0.01 0.69 0.69 95 1005.0
20260506103945 46 0 4.0 11.0 0.01 0.69 0.69 95 1004.9
20260506103445 46 45 4.0 12.0 0.01 0.69 0.69 95 1005.0
20260506102936 46 5 4.0 12.0 0.01 0.69 0.69 95 1004.9
20260506102429 46 5 4.0 10.0 0.01 0.69 0.69 95 1004.9
20260506101922 46 344 4.0 8.0 0.02 0.69 0.69 95 1004.9
20260506101422 46 15 4.0 8.0 0.01 0.68 0.68 95 1004.9
20260506100917 46 12 4.0 8.0 0.01 0.68 0.68 95 1004.9
20260506100741 46 9 4.0 8.0 0.01 0.68 0.68 95 1004.9
20260506100325 46 348 5.0 13.0 0.02 0.68 0.68 95 1004.7
20260506095731 46 20 5.0 13.0 0.02 0.68 0.68 95 1004.7
20260506094911 46 292 4.0 9.0 0.02 0.68 0.68 95 1004.8
20260506094411 46 49 5.0 9.0 0.02 0.68 0.68 95 1004.7
20260506093911 46 13 4.0 9.0 0.02 0.68 0.68 95 1004.7
20260506093413 46 17 4.0 8.0 0.02 0.68 0.68 95 1004.6
20260506093235 46 12 5.0 10.0 0.02 0.68 0.68 95 1004.6
20260506092406 46 322 6.0 11.0 0.02 0.68 0.68 95 1004.6
20260506091906 46 0 5.0 11.0 0.02 0.67 0.67 95 1004.6
20260506091519 46 335 5.0 9.0 0.02 0.66 0.66 95 1004.5
20260506091515 46 348 4.0 9.0 0.02 0.67 0.67 95 1004.5
20260506091506 46 342 4.0 7.0 0.02 0.67 0.67 95 1004.5
20260506091445 46 22 4.0 8.0 0.02 0.67 0.67 95 1004.6
20260506085406 46 0 5.0 10.0 0.02 0.66 0.66 95 1004.5
20260506084903 45 31 5.0 10.0 0.02 0.66 0.66 95 1004.5
20260506084401 45 342 5.0 10.0 0.02 0.66 0.66 95 1004.5
20260506084216 45 337 5.0 10.0 0.02 0.65 0.65 95 1004.5
20260506083359 45 337 5.0 10.0 0.02 0.65 0.65 95 1004.4
20260506083345 45 5 5.0 10.0 0.03 0.65 0.65 95 1004.4
20260506082630 45 18 5.0 9.0 0.03 0.65 0.65 95 1004.4
20260506081856 45 9 5.0 9.0 0.03 0.65 0.65 95 1004.4
20260506081721 45 30 5.0 11.0 0.03 0.65 0.65 95 1004.3
20260506080853 45 319 5.0 11.0 0.04 0.65 0.65 95 1004.2
20260506080353 45 355 5.0 10.0 0.04 0.65 0.65 95 1004.3
20260506072838 45 5 5.0 10.0 0.06 0.62 0.63 95 1004.1
20260506072332 45 355 4.0 10.0 0.06 0.62 0.62 95 1004.2
20260506071823 45 5 5.0 12.0 0.06 0.61 0.62 95 1004.2
20260506071311 45 355 5.0 12.0 0.07 0.61 0.61 94 1004.2
20260506070805 45 327 5.0 13.0 0.07 0.61 0.61 94 1004.2
20260506070751 45 336 5.0 13.0 0.07 0.60 0.60 94 1004.1
20260506070410 45 11 6.0 13.0 0.08 0.61 0.61 94 1004.2
20260506062006 46 331 5.0 10.0 0.08 0.56 0.55 94 1004.0
20260506061204 46 339 5.0 10.0 0.08 0.55 0.54 94 1003.9
20260506060659 47 323 5.0 9.0 0.07 0.54 0.54 94 1003.9
20260506060147 47 343 5.0 9.0 0.08 0.54 0.53 94 1003.8
20260506051052 47 334 4.0 9.0 0.09 0.47 0.46 94 1003.8
20260506050546 47 336 3.0 9.0 0.09 0.46 0.46 94 1003.8
20260506045040 47 349 4.0 7.0 0.09 0.45 0.44 94 1003.8
20260506044539 47 9 3.0 7.0 0.09 0.46 0.43 94 1003.8
20260506044345 47 14 4.0 7.0 0.09 0.44 0.43 94 1003.8
20260506043540 47 5 4.0 7.0 0.09 0.44 0.42 94 1003.8
20260506043038 47 11 4.0 8.0 0.08 0.43 0.40 94 1003.8
20260506042537 47 0 4.0 8.0 0.08 0.42 0.39 94 1003.9
20260506042038 47 15 4.0 7.0 0.08 0.41 0.39 94 1003.8
20260506041535 47 355 4.0 7.0 0.08 0.40 0.38 94 1003.9
20260506041035 47 348 4.0 8.0 0.08 0.39 0.37 94 1003.9
20260506040536 47 350 3.0 8.0 0.07 0.39 0.36 94 1003.9
20260506040034 47 342 3.0 8.0 0.07 0.38 0.35 94 1004.0
20260506035842 47 13 3.0 7.0 0.07 0.37 0.35 94 1004.0
20260506035348 47 343 3.0 8.0 0.07 0.37 0.35 94 1004.0
20260506034533 47 355 4.0 8.0 0.07 0.36 0.34 94 1004.1
20260506034036 47 339 4.0 7.0 0.07 0.35 0.33 94 1004.1
20260506033534 48 342 3.0 7.0 0.06 0.35 0.32 94 1004.1
20260506033139 48 5 4.0 7.0 0.07 0.34 0.31 94 1004.2
20260506033112 48 9 4.0 7.0 0.07 0.35 0.32 94 1004.2
20260506032014 48 5 4.0 9.0 0.06 0.33 0.31 94 1004.2
20260506031504 48 355 4.0 10.0 0.06 0.32 0.30 94 1004.2
20260506031001 48 317 4.0 10.0 0.06 0.31 0.29 94 1004.3
20260506030455 48 344 4.0 9.0 0.06 0.31 0.29 94 1004.3
20260506025950 48 5 5.0 9.0 0.06 0.31 0.28 94 1004.3
20260506025438 48 347 4.0 8.0 0.06 0.30 0.28 94 1004.4
20260506024938 48 11 4.0 8.0 0.06 0.30 0.28 94 1004.4
20260506024801 48 331 5.0 9.0 0.06 0.29 0.27 94 1004.4
20260506023921 48 0 5.0 9.0 0.06 0.28 0.26 94 1004.5
20260506023421 48 26 5.0 8.0 0.08 0.28 0.26 94 1004.4
20260506023305 49 348 4.0 8.0 0.08 0.28 0.25 94 1004.5
20260506022409 49 5 4.0 8.0 0.08 0.27 0.24 94 1004.5
20260506021901 49 355 4.0 8.0 0.09 0.27 0.24 94 1004.5
20260506021359 49 318 4.0 8.0 0.09 0.27 0.24 94 1004.6
20260506020849 49 350 4.0 8.0 0.10 0.26 0.23 94 1004.6
20260506020339 49 336 4.0 8.0 0.11 0.26 0.23 94 1004.6
20260506020151 49 340 4.0 7.0 0.12 0.26 0.23 94 1004.6
20260506015328 49 0 4.0 7.0 0.13 0.25 0.22 94 1004.7
20260506015126 50 346 3.0 6.0 0.13 0.24 0.21 94 1004.7
20260506014320 50 351 3.0 6.0 0.12 0.24 0.21 94 1004.7
20260506013814 50 355 4.0 9.0 0.12 0.24 0.20 94 1004.7
20260506013618 50 343 5.0 9.0 0.11 0.22 0.18 94 1004.7
20260506012757 50 338 4.0 8.0 0.11 0.21 0.17 94 1004.7
20260506012357 50 348 4.0 7.0 0.11 0.20 0.16 94 1004.7
20260506012333 50 0 4.0 7.0 0.11 0.20 0.17 94 1004.8
20260506011240 50 342 3.0 7.0 0.09 0.18 0.14 94 1004.8
20260506010737 50 9 3.0 6.0 0.09 0.17 0.13 94 1004.8
20260506010232 50 19 3.0 7.0 0.08 0.15 0.12 94 1004.9
20260506010030 50 19 4.0 7.0 0.08 0.14 0.10 94 1004.9
20260506005318 50 22 4.0 7.0 0.07 0.13 0.09 94 1005.0
20260506005254 50 9 4.0 7.0 0.07 0.13 0.09 94 1004.9
20260506004205 50 11 4.0 7.0 0.06 0.12 0.08 94 1005.0
20260506003700 50 19 4.0 9.0 0.07 0.12 0.08 94 1005.0
20260506003514 50 10 4.0 9.0 0.06 0.11 0.07 94 1005.1
20260506002647 50 0 4.0 8.0 0.06 0.10 0.06 94 1005.1
20260506002137 50 347 4.0 7.0 0.06 0.09 0.06 94 1005.2
20260506001946 50 19 4.0 9.0 0.05 0.09 0.05 94 1005.2
20260506001128 50 9 4.0 9.0 0.04 0.08 0.04 94 1005.2
20260506000619 51 338 3.0 8.0 0.04 0.08 0.04 94 1005.3
20260506000120 51 19 4.0 7.0 0.03 0.07 0.03 93 1005.3
20260505235609 51 5 3.0 7.0 0.02 0.06 0.02 93 1005.4
20260505235104 51 11 3.0 6.0 0.02 0.06 0.02 93 1005.5
20260505234558 51 22 4.0 8.0 0.02 0.06 0.02 93 1005.5
20260505234052 51 5 4.0 8.0 0.01 0.06 0.02 93 1005.6
20260505233542 51 16 4.0 8.0 0.01 0.06 0.01 93 1005.6
20260505233036 51 19 3.0 7.0 0.01 0.06 0.01 94 1005.7
20260505232830 51 64 3.0 8.0 0.00 0.05 0.00 94 1005.7
20260505232028 51 0 3.0 8.0 0.00 0.05 0.00 94 1005.7
20260505231522 51 49 3.0 7.0 0.00 0.06 0.00 94 1005.7
20260505231024 51 14 3.0 7.0 0.00 0.06 0.00 94 1005.7
20260505230513 51 346 4.0 7.0 0.00 0.06 0.00 94 1005.7
20260505230000 51 61 4.0 8.0 0.00 0.06 0.00 94 1005.8
20260505225458 51 13 3.0 8.0 0.00 0.06 0.00 93 1005.9
20260505225259 51 320 2.0 8.0 0.00 0.06 0.00 93 1005.9
20260505224446 51 14 3.0 7.0 0.00 0.06 0.00 93 1005.9
20260505224233 51 26 4.0 8.0 0.00 0.06 0.00 93 1005.9
20260505223602 51 14 4.0 9.0 0.00 0.07 0.00 93 1005.9
20260505223532 51 15 4.0 8.0 0.00 0.06 0.00 93 1005.9
20260505222417 51 55 4.0 10.0 0.00 0.07 0.00 93 1006.0
20260505221916 51 36 4.0 10.0 0.00 0.07 0.00 93 1006.0
20260505221502 51 19 5.0 10.0 0.00 0.08 0.08 93 1006.1
20260505221454 51 19 5.0 9.0 0.00 0.08 0.00 93 1006.1
20260505221448 51 18 4.0 8.0 0.00 0.07 0.00 93 1006.1
20260505221434 51 350 4.0 8.0 0.00 0.07 0.00 93 1006.0
20260505215344 51 5 5.0 10.0 0.00 0.09 0.08 93 1006.1
20260505214839 51 22 5.0 10.0 0.00 0.09 0.08 93 1006.1
20260505214328 52 16 5.0 9.0 0.00 0.09 0.08 93 1006.2
20260505213827 52 355 5.0 9.0 0.00 0.09 0.08 93 1006.3
20260505213316 52 5 5.0 13.0 0.00 0.09 0.08 93 1006.3
20260505212815 52 10 5.0 13.0 0.00 0.09 0.08 93 1006.3
20260505212309 52 20 5.0 10.0 0.00 0.09 0.08 93 1006.3
20260505211759 52 19 4.0 9.0 0.00 0.10 0.08 93 1006.3
20260505211256 52 38 5.0 10.0 0.00 0.10 0.08 93 1006.3
20260505210747 52 5 5.0 10.0 0.00 0.10 0.08 93 1006.3
20260505210245 52 44 6.0 13.0 0.00 0.10 0.08 93 1006.3
20260505205737 52 343 5.0 13.0 0.00 0.11 0.08 93 1006.3
20260505205236 53 43 4.0 11.0 0.00 0.11 0.08 93 1006.3
20260505204728 53 40 3.0 7.0 0.00 0.11 0.08 93 1006.3
20260505204220 53 5 3.0 6.0 0.00 0.11 0.08 93 1006.4
20260505203715 53 48 3.0 7.0 0.00 0.12 0.08 93 1006.4
20260505203534 53 28 4.0 9.0 0.00 0.12 0.08 93 1006.3
20260505202916 53 336 4.0 7.0 0.00 0.12 0.08 93 1006.4
20260505202702 53 11 4.0 9.0 0.00 0.12 0.08 93 1006.3
20260505201647 53 346 4.0 7.0 0.00 0.12 0.08 93 1006.4
20260505201521 53 28 3.0 7.0 0.00 0.12 0.08 93 1006.3
20260505200637 53 0 4.0 9.0 0.00 0.12 0.08 93 1006.3
20260505200129 53 345 5.0 9.0 0.00 0.12 0.08 93 1006.3
20260505195626 53 74 4.0 8.0 0.00 0.12 0.08 93 1006.2
20260505195113 53 0 3.0 7.0 0.00 0.12 0.08 93 1006.2
20260505194618 54 28 3.0 8.0 0.00 0.13 0.08 92 1006.3
20260505194610 53 5 4.0 10.0 0.00 0.12 0.08 92 1006.3
20260505194602 53 30 3.0 6.0 0.00 0.12 0.08 92 1006.3
20260505194238 53 5 4.0 8.0 0.00 0.12 0.08 92 1006.3
20260505194201 53 9 4.0 10.0 0.00 0.12 0.08 92 1006.3
20260505192037 54 21 3.0 8.0 0.00 0.13 0.08 92 1006.2
20260505191530 54 32 3.0 7.0 0.00 0.13 0.08 92 1006.3
20260505191339 54 43 3.0 7.0 0.00 0.13 0.08 92 1006.3
20260505190822 54 63 3.0 7.0 0.00 0.14 0.08 92 1006.2
20260505190016 54 29 2.0 5.0 0.00 0.14 0.08 92 1006.2
20260505185805 54 29 2.0 5.0 0.00 0.14 0.08 92 1006.3
20260505185005 54 56 1.0 4.0 0.00 0.14 0.08 92 1006.3
20260505184455 54 44 2.0 5.0 0.00 0.14 0.08 92 1006.3
20260505183948 54 42 2.0 5.0 0.00 0.14 0.08 92 1006.3
20260505183449 54 82 2.0 5.0 0.00 0.14 0.08 92 1006.4
20260505182936 54 82 2.0 6.0 0.00 0.14 0.08 92 1006.4
20260505182434 54 82 3.0 7.0 0.00 0.14 0.08 92 1006.4
20260505181924 54 40 3.0 7.0 0.00 0.14 0.08 92 1006.3
20260505181423 54 60 4.0 7.0 0.00 0.14 0.08 92 1006.4
20260505180924 54 69 4.0 9.0 0.00 0.14 0.08 92 1006.3
20260505180407 54 14 5.0 9.0 0.00 0.14 0.08 92 1006.3
20260505175905 54 13 5.0 10.0 0.00 0.14 0.08 92 1006.3
20260505175702 54 84 4.0 10.0 0.00 0.14 0.08 92 1006.3
20260505174853 54 53 4.0 10.0 0.00 0.14 0.08 92 1006.4
20260505174344 54 55 4.0 10.0 0.00 0.14 0.08 92 1006.4
20260505173836 54 24 3.0 7.0 0.00 0.14 0.08 92 1006.4
20260505173335 54 19 3.0 7.0 0.00 0.14 0.08 92 1006.4
20260505172824 54 44 4.0 9.0 0.00 0.14 0.08 92 1006.5
20260505172629 54 56 4.0 9.0 0.00 0.14 0.08 92 1006.5
20260505171813 54 28 3.0 8.0 0.00 0.14 0.08 92 1006.5
20260505171312 54 50 3.0 7.0 0.00 0.14 0.08 92 1006.5
20260505170845 54 35 3.0 9.0 0.00 0.14 0.08 92 1006.5
20260505170828 54 69 4.0 9.0 0.00 0.14 0.08 92 1006.5
20260505165753 54 5 4.0 9.0 0.00 0.14 0.08 92 1006.6
20260505165242 54 50 4.0 10.0 0.00 0.14 0.08 92 1006.5
20260505165038 54 48 3.0 10.0 0.00 0.14 0.08 92 1006.6
20260505164231 54 37 3.0 8.0 0.00 0.14 0.08 92 1006.6
20260505163728 54 28 3.0 7.0 0.00 0.14 0.08 92 1006.6
20260505163223 54 29 4.0 7.0 0.00 0.14 0.08 92 1006.7
20260505162715 54 14 4.0 7.0 0.00 0.14 0.08 92 1006.8
20260505162210 54 21 4.0 7.0 0.00 0.14 0.08 92 1006.8
20260505161707 54 355 4.0 9.0 0.00 0.14 0.08 92 1006.8
20260505161524 54 61 4.0 9.0 0.00 0.14 0.08 92 1006.8
20260505160703 54 344 3.0 9.0 0.00 0.14 0.08 92 1006.7
20260505160146 54 13 4.0 10.0 0.00 0.14 0.08 92 1006.8
20260505153107 54 355 3.0 7.0 0.00 0.14 0.08 92 1007.1
20260505152601 54 340 3.0 7.0 0.00 0.14 0.08 92 1007.1
20260505152100 54 0 4.0 6.0 0.00 0.14 0.08 92 1007.1
20260505151553 54 5 3.0 7.0 0.00 0.14 0.08 92 1007.1
20260505151046 54 328 4.0 9.0 0.00 0.14 0.08 92 1007.2
20260505150536 54 325 4.0 9.0 0.00 0.14 0.08 92 1007.2
20260505150405 55 355 4.0 8.0 0.00 0.14 0.08 92 1007.2
20260505140429 54 5 4.0 11.0 0.00 0.14 0.08 93 1007.6